Weather History for Oakland, MD

Change the Weather History Date:

Sunday, August 18, 2013

  Actual Average (KMGW) Record (KMGW)
Temperature  
Mean Temperature 60 °F 72 °F  
Max Temperature 68 °F 83 °F 95 °F (1965)
Min Temperature 51 °F 62 °F 46 °F (1962)
Degree Days  
Heating Degree Days 6 0  
Month to date heating degree days 0  
Since 1 June heating degree days 34  
Since 1 July heating degree days 3  
Cooling Degree Days 0 7  
Month to date cooling degree days 140  
Year to date cooling degree days 624  
Since 1 June cooling degree days 557  
Growing Degree Days 10 (Base 50)    
Moisture  
Dew Point 60 °F    
Average Humidity 98    
Maximum Humidity 100    
Minimum Humidity 83    
Precipitation  
Precipitation 0.00 in 0.12 in 3.89 in (1980)
Month to date precipitation 2.12  
Year to date precipitation 28.04  
Sea Level Pressure  
Sea Level Pressure 30.27 in    
Wind  
Wind Speed 10 mph (SE)    
Max Wind Speed 14 mph    
Max Gust Speed 20 mph    
Visibility 6 miles    
Events Fog    
T = Trace of Precipitation, MM = Missing Value Source: NWS Daily Summary

Daily Weather History Graph

Daily Weather History Graph

Search for Another Location

Airport:

Trip Planner

Search our weather history database for the weather conditions in past years. The results will help you decide how hot, cold, wet, or windy it might be!

Date:

Astronomy

Aug. 18, 2013 Rise Set
Actual Time 6:32 AM EDT 8:08 PM EDT
Civil Twilight 6:04 AM EDT 8:37 PM EDT
Nautical Twilight 5:29 AM EDT 9:11 PM EDT
Astronomical Twilight 4:53 AM EDT 9:48 PM EDT
Moon 6:13 PM EDT (8/18) 3:40 AM EDT (8/18)
Length of Visible Light 14h 33m
Length of Day
13h 36m
Waxing Gibbous, 92% of the Moon is Illuminated
Aug 18
Waxing Gibbous
Aug 20
Full
Aug 28
Last Quarter
Sep 5
New
Sep 12
First Quarter

Hourly Weather History & Observations

Time (EDT) Temp. Dew Point Humidity Pressure Visibility Wind Dir Wind Speed Gust Speed Precip Events Conditions
12:00 AM 59.0 °F 59.0 °F 100% 30.28 in 10.0 mi SE 12.7 mph 18.4 mph N/A   Mostly Cloudy
12:20 AM 59.0 °F 59.0 °F 100% 30.29 in 10.0 mi SE 12.7 mph 18.4 mph N/A   Mostly Cloudy
12:40 AM 59.0 °F 59.0 °F 100% 30.29 in 10.0 mi SE 10.4 mph - N/A   Overcast
1:00 AM 59.0 °F 59.0 °F 100% 30.28 in 10.0 mi SE 10.4 mph - N/A   Overcast
1:20 AM 59.0 °F 59.0 °F 100% 30.28 in 10.0 mi SE 10.4 mph - N/A   Overcast
1:40 AM 59.0 °F 59.0 °F 100% 30.28 in 10.0 mi SE 12.7 mph 16.1 mph N/A   Overcast
2:00 AM 59.0 °F 59.0 °F 100% 30.27 in 10.0 mi SE 11.5 mph - N/A   Overcast
2:20 AM 59.0 °F 59.0 °F 100% 30.27 in 10.0 mi SE 12.7 mph - N/A   Overcast
2:40 AM 59.0 °F 59.0 °F 100% 30.27 in 10.0 mi SE 10.4 mph - N/A   Overcast
3:00 AM 57.2 °F 57.2 °F 100% 30.26 in 10.0 mi SE 12.7 mph - N/A   Overcast
3:20 AM 57.2 °F 57.2 °F 100% 30.27 in 10.0 mi SE 12.7 mph - N/A   Overcast
3:40 AM 55.4 °F 55.4 °F 100% 30.26 in 10.0 mi SE 12.7 mph 18.4 mph N/A   Overcast
4:00 AM 55.4 °F 55.4 °F 100% 30.26 in 7.0 mi SE 11.5 mph - N/A   Overcast
4:20 AM 55.4 °F 55.4 °F 100% 30.27 in 5.0 mi SE 9.2 mph - N/A   Overcast
4:40 AM 55.4 °F - N/A% 30.26 in 3.0 mi SE 11.5 mph - N/A   Overcast
5:00 AM 55.4 °F - N/A% 30.26 in 2.5 mi SE 11.5 mph - N/A   Overcast
5:20 AM 55.4 °F - N/A% 30.26 in 2.5 mi SE 11.5 mph - N/A   Overcast
5:40 AM 55.4 °F - N/A% 30.26 in 2.0 mi SE 12.7 mph 17.3 mph N/A   Overcast
6:00 AM 55.4 °F - N/A% 30.26 in 1.5 mi SE 12.7 mph 17.3 mph N/A   Overcast
6:20 AM 55.4 °F - N/A% 30.26 in 1.2 mi SE 10.4 mph 16.1 mph N/A   Overcast
6:40 AM 55.4 °F - N/A% 30.27 in 1.8 mi SE 13.8 mph 19.6 mph N/A   Overcast
7:00 AM 55.4 °F - N/A% 30.28 in 1.2 mi ESE 11.5 mph 17.3 mph N/A   Overcast
7:20 AM 53.6 °F - N/A% 30.27 in 2.0 mi SE 12.7 mph 17.3 mph N/A   Overcast
7:40 AM 53.6 °F - N/A% 30.28 in 0.8 mi SE 10.4 mph - N/A   Overcast
8:00 AM 53.6 °F - N/A% 30.28 in 0.2 mi ESE 11.5 mph - N/A Fog Fog
8:20 AM 53.6 °F - N/A% 30.29 in 1.8 mi SE 11.5 mph - N/A   Overcast
8:40 AM 53.6 °F - N/A% 30.30 in 1.8 mi SE 10.4 mph - N/A   Overcast
9:00 AM 53.6 °F - N/A% 30.29 in 4.0 mi ESE 10.4 mph 16.1 mph N/A   Haze
9:20 AM 51.8 °F - N/A% 30.30 in 5.0 mi SE 9.2 mph - N/A   Haze
9:40 AM 51.8 °F - N/A% 30.29 in 7.0 mi ESE 11.5 mph - N/A   Overcast
10:00 AM 51.8 °F - N/A% 30.29 in 5.0 mi SE 11.5 mph 16.1 mph N/A   Haze
10:20 AM 53.6 °F - N/A% 30.29 in 7.0 mi SE 9.2 mph - N/A   Overcast
10:40 AM 53.6 °F - N/A% 30.30 in 7.0 mi SE 11.5 mph - N/A   Overcast
11:00 AM 55.4 °F - N/A% 30.30 in 10.0 mi SE 10.4 mph - N/A   Mostly Cloudy
11:20 AM 55.4 °F 55.4 °F 100% 30.30 in 10.0 mi SE 12.7 mph - N/A   Scattered Clouds
11:40 AM 57.2 °F 57.2 °F 100% 30.30 in 10.0 mi SE 10.4 mph - N/A   Clear
12:00 PM 57.2 °F 57.2 °F 100% 30.30 in 10.0 mi SE 9.2 mph - N/A   Scattered Clouds
12:20 PM 57.2 °F 57.2 °F 100% 30.29 in 10.0 mi SE 10.4 mph - N/A   Scattered Clouds
12:40 PM 59.0 °F 59.0 °F 100% 30.29 in 10.0 mi SE 11.5 mph - N/A   Scattered Clouds
1:00 PM 60.8 °F 60.8 °F 100% 30.28 in 10.0 mi SE 9.2 mph - N/A   Scattered Clouds
1:20 PM 60.8 °F 60.8 °F 100% 30.28 in 10.0 mi SE 10.4 mph - N/A   Clear
1:40 PM 62.6 °F 60.8 °F 94% 30.28 in 10.0 mi SE 10.4 mph - N/A   Clear
2:00 PM 62.6 °F 60.8 °F 94% 30.28 in 10.0 mi SE 10.4 mph - N/A   Clear
2:20 PM 64.4 °F 62.6 °F 94% 30.27 in 10.0 mi SE 9.2 mph - N/A   Clear
2:40 PM 62.6 °F 62.6 °F 100% 30.27 in 10.0 mi SE 6.9 mph - N/A   Clear
3:00 PM 62.6 °F 62.6 °F 100% 30.27 in 10.0 mi ESE 6.9 mph - N/A   Clear
3:20 PM 64.4 °F 62.6 °F 94% 30.26 in 10.0 mi ESE 6.9 mph - N/A   Clear
3:40 PM 66.2 °F 62.6 °F 88% 30.26 in 10.0 mi SSE 8.1 mph - N/A   Clear
4:00 PM 68.0 °F 62.6 °F 83% 30.26 in 10.0 mi South 5.8 mph - N/A   Scattered Clouds
4:20 PM 64.4 °F 62.6 °F 94% 30.25 in 10.0 mi ESE 4.6 mph - N/A   Mostly Cloudy
4:40 PM 66.2 °F 62.6 °F 88% 30.25 in 10.0 mi East 4.6 mph - N/A   Mostly Cloudy
5:00 PM 64.4 °F 62.6 °F 94% 30.25 in 10.0 mi ESE 4.6 mph - N/A   Scattered Clouds
5:20 PM 64.4 °F 62.6 °F 94% 30.25 in 10.0 mi ESE 6.9 mph - N/A   Scattered Clouds
5:40 PM 64.4 °F 62.6 °F 94% 30.25 in 10.0 mi East 3.5 mph - N/A   Scattered Clouds
6:00 PM 62.6 °F 62.6 °F 100% 30.25 in 10.0 mi ESE 6.9 mph - N/A   Scattered Clouds
6:20 PM 62.6 °F 62.6 °F 100% 30.24 in 10.0 mi SE 4.6 mph - N/A   Mostly Cloudy
6:40 PM 60.8 °F 60.8 °F 100% 30.24 in 10.0 mi SE 5.8 mph - N/A   Overcast
7:00 PM 60.8 °F 60.8 °F 100% 30.24 in 7.0 mi SE 6.9 mph - N/A   Mostly Cloudy
7:20 PM 59.0 °F 59.0 °F 100% 30.24 in 7.0 mi SE 4.6 mph - N/A   Overcast
7:40 PM 59.0 °F 59.0 °F 100% 30.24 in 4.0 mi SSE 5.8 mph - N/A   Overcast
8:00 PM 59.0 °F - N/A% 30.24 in 2.0 mi SSE 5.8 mph - N/A   Overcast
8:20 PM 59.0 °F - N/A% 30.24 in 2.5 mi SSE 5.8 mph - N/A   Mostly Cloudy
8:40 PM 57.2 °F - N/A% 30.24 in 2.5 mi SSE 6.9 mph - N/A   Overcast
9:00 PM 57.2 °F - N/A% 30.24 in 2.0 mi SSE 4.6 mph - N/A   Overcast
9:20 PM 57.2 °F - N/A% 30.24 in 1.0 mi South 5.8 mph - N/A   Mostly Cloudy
9:40 PM 57.2 °F - N/A% 30.25 in 0.5 mi SSE 5.8 mph - N/A Fog Fog
10:00 PM 57.2 °F - N/A% 30.24 in 0.5 mi SSE 5.8 mph - N/A Fog Fog
10:20 PM 57.2 °F - N/A% 30.24 in 0.2 mi SE 4.6 mph - N/A Fog Fog
10:40 PM 57.2 °F - N/A% 30.24 in 0.2 mi SSE 5.8 mph - N/A Fog Fog
11:00 PM 57.2 °F - N/A% 30.24 in 0.2 mi SE 5.8 mph - N/A Fog Fog
11:20 PM 57.2 °F - N/A% 30.24 in 0.5 mi South 4.6 mph - N/A Fog Fog
11:40 PM 57.2 °F - N/A% 30.23 in 1.0 mi South 4.6 mph - N/A   Overcast